SCP
0 0 0 0 0 0 0 0 0 0 0 0 0 0 0 0 0 0 0 0 0 0
0 0 0 0 0 0 0 0 0 0 0 0 0 0 0 0 0 0 0 0 0 0
0 0 0 0 0 0 0 0 0 0 0 0 0 0 0 0 0 0 0 0 0 0
0 0 0 0 0 0 0 0 0 0 0 0 0 0 0 0 0 0 0 0 0 0
0 0 0 0 0 0 0 0 0 0 0 0 0 0 0 0 0 0 0 0 0 0
0 0 0 0 0 0 0 0 0 0 0 0 0 0 0 0 0 0 0 0 0 0
0 0 0 0 0 0 0 0 0 0 0 0 0 0 0 0 0 0 0 0 0 0
0 0 0 0 0 0 0 0 0 0 0 0 0 0 0 0 0 0 0 0 0 0
0 0 0 0 0 0 0 0 0 0 0 0 0 0 0 0 0 0 0 0 0 0
0 0 0 0 0 0 0 0 0 0 0 0 0 0 0 0 0 0 0 0 0 0
0 0 0 0 0 0 0 0 0 0 0 0 0 0 0 0 0 0 0 0 0 0
0 0 0 0 0 0 0 0 0 0 0 0 0 0 0 0 0 0 0 0 0 0
0 0 0 0 0 0 0 0 0 0 0 0 0 0 0 0 0 0 0 0 0 0
0 0 0 0 0 0 0 0 0 0 0 0 0 0 0 0 0 0 0 0 0 0
Wind_Speed_500mb
19 17 18 21 24 25 26 29 33 36 40 42 46 50 54 58 63 67 69 73 75 77
16 15 14 17 21 26 29 31 35 41 44 49 53 58 63 68 70 73 75 74 73 72
8 11 16 20 22 26 30 36 40 48 57 63 68 72 74 77 78 80 79 80 79 78
8 13 19 24 28 34 40 45 52 60 68 70 72 73 76 78 81 84 86 84 82 81
11 17 22 27 32 38 44 52 60 64 66 70 73 75 77 81 80 83 83 81 81 82
14 20 23 26 32 40 51 58 61 64 69 73 76 78 78 78 75 74 76 76 75 77
16 22 25 29 38 49 55 59 63 67 73 76 77 75 74 71 72 71 73 71 69 67
22 23 28 35 44 51 57 61 66 72 74 74 73 70 70 74 74 72 70 66 65 62
24 26 32 41 48 54 59 64 69 72 73 72 71 70 72 73 70 67 64 66 62 61
27 29 36 43 49 56 62 68 71 71 70 72 71 71 74 71 65 63 60 59 60 61
27 31 38 44 52 59 65 71 72 72 69 71 71 71 73 72 65 60 58 56 56 57
28 33 40 47 55 63 68 72 71 69 69 70 71 68 69 66 60 54 53 53 56 62
28 35 43 51 59 65 68 70 69 69 66 65 66 61 59 53 49 56 66 67 65 67
30 37 45 54 61 65 67 67 65 66 62 59 57 56 56 47 52 61 67 71 74 74
Wind_Direction_500mb
89 70 46 27 13 1 351 343 337 335 332 328 325 322 319 317 314 312 311 308 308 306
68 48 26 7 356 347 341 336 334 329 325 323 320 319 317 315 313 312 311 308 306 302
52 22 5 354 344 337 335 330 331 327 326 324 324 323 322 320 319 316 315 313 310 306
28 5 354 346 342 337 335 333 331 329 326 324 322 320 316 313 311 309 307 305 303 301
4 353 346 340 336 332 328 327 328 325 321 318 316 314 312 310 308 306 304 302 299 298
348 337 331 328 327 326 324 324 323 320 318 315 314 313 312 310 308 305 303 301 298 296
323 326 323 326 326 323 324 323 321 318 317 316 316 316 315 313 310 306 302 299 297 296
320 316 317 322 324 325 324 321 320 319 318 318 317 318 316 313 309 306 302 299 296 294
304 307 317 322 324 324 323 322 321 321 321 320 319 319 315 312 309 305 300 300 298 296
301 306 314 319 323 324 324 323 323 322 322 321 321 320 317 314 308 303 301 297 297 298
291 305 316 321 324 325 325 324 324 322 322 321 322 320 317 314 309 303 301 300 300 300
292 309 317 323 326 326 325 323 322 322 322 323 322 320 317 314 311 306 305 307 306 306
294 309 319 325 326 324 323 321 321 320 322 323 322 322 318 318 318 318 320 315 310 310
297 312 320 323 323 322 321 319 319 318 322 324 325 326 329 325 321 316 313 311 312 314
Wind_Speed_850mb
19 17 18 21 24 25 26 29 33 36 40 42 46 50 54 58 63 67 69 73 75 77
16 15 14 17 21 26 29 31 35 41 44 49 53 58 63 68 70 73 75 74 73 72
8 11 16 20 22 26 30 36 40 48 57 63 68 72 74 77 78 80 79 80 79 78
8 13 19 24 28 34 40 45 52 60 68 70 72 73 76 78 81 84 86 84 82 81
11 17 22 27 32 38 44 52 60 64 66 70 73 75 77 81 80 83 83 81 81 82
14 20 23 26 32 40 51 58 61 64 69 73 76 78 78 78 75 74 76 76 75 77
16 22 25 29 38 49 55 59 63 67 73 76 77 75 74 71 72 71 73 71 69 67
22 23 28 35 44 51 57 61 66 72 74 74 73 70 70 74 74 72 70 66 65 62
24 26 32 41 48 54 59 64 69 72 73 72 71 70 72 73 70 67 64 66 62 61
27 29 36 43 49 56 62 68 71 71 70 72 71 71 74 71 65 63 60 59 60 61
27 31 38 44 52 59 65 71 72 72 69 71 71 71 73 72 65 60 58 56 56 57
28 33 40 47 55 63 68 72 71 69 69 70 71 68 69 66 60 54 53 53 56 62
28 35 43 51 59 65 68 70 69 69 66 65 66 61 59 53 49 56 66 67 65 67
30 37 45 54 61 65 67 67 65 66 62 59 57 56 56 47 52 61 67 71 74 74
Wind_Direction_850mb
89 70 46 27 13 1 351 343 337 335 332 328 325 322 319 317 314 312 311 308 308 306
68 48 26 7 356 347 341 336 334 329 325 323 320 319 317 315 313 312 311 308 306 302
52 22 5 354 344 337 335 330 331 327 326 324 324 323 322 320 319 316 315 313 310 306
28 5 354 346 342 337 335 333 331 329 326 324 322 320 316 313 311 309 307 305 303 301
4 353 346 340 336 332 328 327 328 325 321 318 316 314 312 310 308 306 304 302 299 298
348 337 331 328 327 326 324 324 323 320 318 315 314 313 312 310 308 305 303 301 298 296
323 326 323 326 326 323 324 323 321 318 317 316 316 316 315 313 310 306 302 299 297 296
320 316 317 322 324 325 324 321 320 319 318 318 317 318 316 313 309 306 302 299 296 294
304 307 317 322 324 324 323 322 321 321 321 320 319 319 315 312 309 305 300 300 298 296
301 306 314 319 323 324 324 323 323 322 322 321 321 320 317 314 308 303 301 297 297 298
291 305 316 321 324 325 325 324 324 322 322 321 322 320 317 314 309 303 301 300 300 300
292 309 317 323 326 326 325 323 322 322 322 323 322 320 317 314 311 306 305 307 306 306
294 309 319 325 326 324 323 321 321 320 322 323 322 322 318 318 318 318 320 315 310 310
297 312 320 323 323 322 321 319 319 318 322 324 325 326 329 325 321 316 313 311 312 314